Location: Newark
(35.8967°N, 14.4625°E)
Time: 16:48:14
(UTC+00:00)

Envisat - Pass Details

Date: 27 October 2019
Orbit: 764 x 766 km, 98.1° (Epoch: 21 November)

Event Time Altitude Azimuth Distance (km) Brightness Sun altitude
Rises 16:27:15 0° 143° (SE) 3,219 6.0 -3.8°
Reaches altitude 10° 16:29:43 10° 135° (SE) 2,297 5.2 -4.2°
Maximum altitude 16:34:16 35° 71° (ENE) 1,230 3.6 -5.1°
Drops below altitude 10° 16:38:50 10° 7° (N) 2,309 5.3 -6.1°
Sets 16:41:18 0° 358° (N) 3,239 6.1 -6.5°
